Satellite-Ground Cal/Val Site Overpasses Predictions

Prediction of Satellite NPP Overpassing Cal/Val Site: Antarctic Dome C

Ground Cal/Val Site Location: Latitude: -75.10, Longitude: 123.35; Satellite-Ground Site NADIR distance within 100 km.

Table of predicted overpasses for the next 14.0 days since TLE Epoch: 5/28/2022
Interval Starting Time Ending Time Minimum Distance Time Minimum Distance (km)
1 05/29/2022 15:07:10 05/29/2022 15:07:20 05/29/2022 15:07:15 92.16
2 05/30/2022 14:48:09 05/30/2022 14:48:38 05/30/2022 14:48:23 19.08
3 06/01/2022 07:30:56 06/01/2022 07:31:26 06/01/2022 07:31:11 4.96
4 06/04/2022 14:54:20 06/04/2022 14:54:49 06/04/2022 14:54:34 17.00
5 06/05/2022 14:35:38 06/05/2022 14:35:50 06/05/2022 14:35:44 90.02
6 06/06/2022 07:37:08 06/06/2022 07:37:36 06/06/2022 07:37:22 30.56
7 06/07/2022 07:18:23 06/07/2022 07:18:40 06/07/2022 07:18:31 79.91
8 06/09/2022 15:00:33 06/09/2022 15:00:58 06/09/2022 15:00:45 53.16
